Location: Unspecified
(58.9933°N, 5.6375°E)
Time: 05:44:45
(UTC+02:00)

Cosmos 2058 - Visible Passes

Search period start: 05 September 2015 00:00
Search period end: 15 September 2015 00:00
Orbit: 566 x 588 km, 82.5° (Epoch: 04 September)

Date Brightness Start Highest point End Pass type
(mag) Time Alt. Az. Time Alt. Az. Time Alt. Az.
05 Sep 3.7 00:42:56 10° NNW 00:46:58 43° W 00:47:16 42° WSW visible
05 Sep 3.7 23:10:06 10° N 23:14:08 40° ENE 23:15:08 34° ESE visible
06 Sep 4.0 00:47:15 10° NNW 00:51:08 34° W 00:51:25 34° W visible
06 Sep 5.2 21:38:45 10° NNE 21:40:17 12° NE 21:41:56 10° ENE visible
06 Sep 3.3 23:14:16 10° N 23:18:25 49° ENE 23:19:18 42° ESE visible
07 Sep 4.4 00:51:36 10° NNW 00:55:16 28° W 00:55:34 28° W visible
07 Sep 5.1 21:42:31 10° NNE 21:44:42 14° NE 21:47:00 10° E visible
07 Sep 3.1 23:18:27 10° N 23:22:41 62° ENE 23:23:28 51° ESE visible
08 Sep 4.7 00:56:01 10° NW 00:59:23 23° W 00:59:45 23° W visible
08 Sep 4.9 21:46:26 10° NNE 21:49:07 16° NE 21:51:22 12° E visible
08 Sep 2.9 23:22:40 10° NNW 23:26:56 77° ENE 23:27:39 60° SE visible
09 Sep 5.0 01:00:28 10° NW 01:03:30 19° W 01:03:55 18° W visible
09 Sep 4.7 21:50:27 10° N 21:53:31 19° NE 21:55:33 14° E visible
09 Sep 2.9 23:26:53 10° NNW 23:31:10 86° WSW 23:31:50 63° S visible
10 Sep 5.2 01:05:02 10° NW 01:07:35 15° W 01:08:06 15° W visible
10 Sep 4.5 21:54:30 10° N 21:57:53 23° ENE 21:59:45 17° E visible
10 Sep 3.1 23:31:08 10° NNW 23:35:22 69° W 23:36:01 58° SSW visible
11 Sep 5.5 01:09:46 10° NW 01:11:39 13° W 01:12:18 12° W visible
11 Sep 4.2 21:58:35 10° N 22:02:14 27° ENE 22:03:56 21° E visible
11 Sep 3.4 23:35:23 10° NNW 23:39:33 55° W 23:40:14 48° SW visible
12 Sep 3.9 22:02:42 10° N 22:06:33 32° ENE 22:08:09 25° ESE visible
12 Sep 3.7 23:39:40 10° NNW 23:43:44 44° W 23:44:25 40° WSW visible
13 Sep 3.6 22:06:51 10° N 22:10:52 39° ENE 22:12:22 29° ESE visible
13 Sep 4.1 23:43:58 10° NNW 23:47:52 35° W 23:48:39 32° WSW visible
14 Sep 3.3 22:11:00 10° N 22:15:09 48° ENE 22:16:37 33° ESE visible
14 Sep 4.5 23:48:19 10° NNW 23:52:00 29° W 23:52:53 26° WSW visible
